Location: ?????
(30.2541°N, 31.0910°E)
Time: 21:19:51
(UTC+00:00)

Envisat - Visible Passes

Search period start: 30 March 2023 00:00
Search period end: 09 April 2023 00:00
Orbit: 763 x 765 km, 98.2° (Epoch: 30 March)

Date Brightness Start Highest point End Pass type
(mag) Time Alt. Az. Time Alt. Az. Time Alt. Az.
30 Mar 3.5 01:30:30 10° NNE 01:35:29 54° E 01:36:29 46° SE visible
30 Mar 4.7 03:11:35 10° NW 03:13:56 13° WNW 03:16:17 10° W visible
31 Mar 5.0 00:54:24 10° NE 00:58:16 22° E 00:59:05 21° ESE visible
31 Mar 3.7 02:32:44 10° N 02:37:12 32° WNW 02:39:17 23° WSW visible
01 Apr 2.8 01:55:12 10° N 02:00:17 80° WNW 02:01:53 45° SSW visible
02 Apr 4.1 01:18:25 10° NNE 01:23:11 40° E 01:24:29 34° SE visible
02 Apr 4.5 02:58:28 10° NNW 03:01:48 18° WNW 03:04:40 12° WSW visible
03 Apr 5.4 00:42:50 10° ENE 00:45:54 16° E 00:47:05 15° ESE visible
03 Apr 3.4 02:20:13 10° N 02:25:00 42° WNW 02:27:16 27° SW visible
04 Apr 3.0 01:42:55 10° NNE 01:48:00 76° ESE 01:49:52 40° S visible
05 Apr 4.6 01:06:26 10° NE 01:10:51 30° E 01:12:28 25° SE visible
05 Apr 4.1 02:45:39 10° NNW 02:49:37 24° WNW 02:52:39 14° WSW visible
06 Apr 5.7 00:31:50 10° ENE 00:33:31 11° E 00:35:03 10° ESE visible
06 Apr 3.0 02:07:47 10° N 02:12:45 58° WNW 02:15:14 29° SW visible
07 Apr 3.5 01:30:43 10° NNE 01:35:43 56° E 01:37:49 33° SSE visible
07 Apr 4.8 03:11:55 10° NW 03:14:09 13° WNW 03:16:23 10° W visible
08 Apr 5.1 00:54:34 10° NE 00:58:29 22° E 01:00:24 18° SE visible
08 Apr 3.8 02:32:59 10° N 02:37:25 31° WNW 02:40:35 16° WSW visible
